Flag for Germany Weather past 2 weeks in Ehingen (Donau), Baden-Württemberg, Germany

Now
46 °F

Cool.


Feels Like: 44 °F
Forecast: 35 / 54 °F
Wind: 5 mph from East

Location: Laupheim Airport

Current Time: Oct 26, 2014 at 5:10:32 AM

Latest Report: Oct 26, 2014 at 4:20 AM


Visibility: 2 mi

Pressure: 30.27 "Hg

Humidity: 100%

Dew point: 46 °F

Location of Ehingen (Donau)Location

Historic Weather in Ehingen (Donau) — Graph

°F

Ehingen (Donau) temperature yesterday

Maximum temperature yesterday: 52 °F (at 3:20 PM)
Minimum temperature yesterday: 36 °F (at 3:20 AM)
Average temperature yesterday: 45 °F

Past Weeks' High & Low Weather Summary

 TemperatureHumidityPressure
High70 °F (Oct 19, 3:20 PM)100% (Oct 11, 4:20 AM)30.27 "Hg (Oct 11, 4:20 AM)
Low36 °F (Oct 24, 8:20 AM)55% (Oct 21, 4:56 PM)29.68 "Hg (Oct 21, 7:20 PM)
Average53 °F88%30.02 "Hg
* Reported Oct 11 4:20 AM — Oct 26 3:20 AM, Ehingen (Donau), Weather by CustomWeather, © 2014

Note: Actual official high and low records may vary slightly from our data, if they occured in-between our weather recording intervals... More about our weather records

Advertising

Ehingen (Donau) weather history for previous 24 hours

 ConditionsComfort  
Time TempWeatherWind HumidityBarometerVisibility
3:20 AM
Oct 26
46 °FCool.1 mph100%30.27 "Hg1 mi
2:20 AM46 °FCool.2 mph100%30.27 "Hg2 mi
2:20 AM46 °FCool.2 mph100%30.27 "Hg2 mi
1:20 AM46 °FCool.2 mph100%30.27 "Hg2 mi
12:20 AM46 °FCool.1 mph100%30.24 "Hg3 mi
11:20 PM
Oct 25
48 °FCool.2 mph94%30.24 "Hg3 mi
10:20 PM48 °FCool.1 mph94%30.24 "Hg3 mi
9:20 PM48 °FCool.2 mph94%30.21 "Hg3 mi
8:20 PM48 °FCool.1 mph94%30.21 "Hg4 mi
7:20 PM50 °FCool.2 mph88%30.21 "Hg4 mi
6:20 PM50 °FCool.1 mph82%30.18 "Hg6 mi
5:20 PM52 °FCool.3 mph82%30.15 "Hg5 mi
4:20 PM52 °FCool.3 mph77%30.15 "Hg5 mi
3:20 PM52 °FCool.3 mph77%30.15 "Hg5 mi
2:20 PM50 °FCool.5 mph82%30.15 "Hg5 mi
1:20 PM50 °FCool.3 mph82%30.15 "Hg4 mi
12:20 PM48 °FCool.5 mph87%30.15 "Hg4 mi
11:20 AM46 °FCool.3 mph87%30.15 "Hg4 mi
10:20 AM45 °FQuite cool.5 mph93%30.15 "Hg4 mi
9:20 AM43 °FQuite cool.5 mph93%30.12 "Hg4 mi
8:20 AM41 °FQuite cool.2 mph93%30.12 "Hg4 mi
7:20 AM39 °FChilly.2 mph100%30.12 "Hg4 mi
6:20 AM39 °FChilly.2 mph93%30.12 "Hg4 mi
5:20 AM37 °FChilly.No wind100%30.09 "Hg3 mi
Weather by CustomWeather, © 2014

See weather overviewHow to use our weather pages